CFG4ED LEPA-EDDH

Flight info

Callsign CFG4ED
Flight time N/A
Altitude 34000
Route MEROS DCT LAPIT DCT CHELY/N0456F320 DCT LUMAS DCT MAXIR DCT LUSOL DCT BODRU DCT OKTET DCT IRMAR/N0452F340 DCT KINES DCT VANAS DCT ESOKO DCT GODRA/N0452F350 DCT LOKTA DCT TEDGO DCT HAREM DCT LOHRE DCT ELNAT/N0449F360 P605 NOLGO NOLGO6A
Aircraft A321/M-SDE3FGHIRWY/LB1

Departure

Time N/A
Airport Palma de Mallorca Airport (LEPA)

Arrival

Time 2026-04-30 18:00
Airport Hamburg Helmut Schmidt Airport (EDDH)
Time Latitude Longitude Altitude Speed Heading
2026-04-30 14:54 39.55030 2.73490 30 ft 0 kts 163°
2026-04-30 17:39 52.38146 9.91484 26508 ft 402 kts
2026-04-30 17:41 52.58949 9.95981 23290 ft 384 kts 10°
2026-04-30 17:42 52.64183 9.97128 22388 ft 379 kts 10°
2026-04-30 17:42 52.71979 9.98809 21072 ft 373 kts 10°
2026-04-30 17:43 52.77102 9.99926 20225 ft 369 kts 11°
2026-04-30 17:44 52.84638 10.01595 19011 ft 360 kts 11°
2026-04-30 17:44 52.91965 10.03207 17688 ft 348 kts 11°
2026-04-30 17:46 53.03762 10.05804 15738 ft 334 kts 12°
2026-04-30 17:47 53.12805 10.07818 14288 ft 322 kts 12°
2026-04-30 17:48 53.21603 10.09082 12706 ft 318 kts 348°
2026-04-30 17:48 53.26545 10.02108 11526 ft 310 kts 314°
2026-04-30 17:49 53.32029 9.91604 9804 ft 283 kts 314°
2026-04-30 17:50 53.36949 9.82173 8010 ft 259 kts 314°
2026-04-30 17:51 53.40391 9.75376 6671 ft 255 kts 299°
2026-04-30 17:52 53.39413 9.67130 5666 ft 250 kts 235°
2026-04-30 17:53 53.42666 9.58680 4409 ft 226 kts 28°
2026-04-30 17:54 53.46821 9.66247 3459 ft 215 kts 52°
2026-04-30 17:55 53.50458 9.73514 3002 ft 192 kts 52°
2026-04-30 17:56 53.53806 9.80225 2558 ft 180 kts 52°
2026-04-30 17:57 53.56182 9.84998 1847 ft 172 kts 52°
2026-04-30 17:58 53.58255 9.89187 1222 ft 146 kts 53°
2026-04-30 17:59 53.60868 9.94451 397 ft 147 kts 51°
2026-04-30 18:00 53.63016 9.98780 45 ft 48 kts 50°
2026-04-30 18:00 53.63083 9.99312 45 ft 6 kts 93°
2026-04-30 18:01 53.63096 9.99391 47 ft 11 kts 62°
2026-04-30 18:02 53.63209 9.99645 48 ft 0 kts 51°
2026-04-30 18:02 53.63319 9.99845 49 ft 12 kts 51°
2026-04-30 18:03 53.63328 10.00008 48 ft 1 kts 140°
2026-04-30 18:04 53.63314 10.00027 48 ft 0 kts 140°